Regional Weather Roundup
Issued by NWS

Home | Current Version | Previous Version | Text Only | Print | Product List | Glossary Off
Versions: 1 2 3 4 5 6 7 8 9 10 11 12 13 14 15 16 17 18 19 20 21 22 23 24 25 26 27 28 29 30 31 32 33 34 35 36 37 38 39 40 41 42 43 44 45 46 47 48 49 50

000
ASUS43 KIND 020009
RWRIN

WEATHER ROUNDUP FOR INDIANA
NATIONAL WEATHER SERVICE INDIANAPOLIS IN
700 PM EST SUN FEB 01 2015

NOTE: "FAIR" INDICATES FEW OR NO CLOUDS BELOW 12,000 FEET WITH NO
SIGNIFICANT WEATHER AND/OR OBSTRUCTIONS TO VISIBILITY.

* - STATION DOES NOT REPORT WEATHER SUCH AS PRECIPITATION OR FOG.

+ - STATION NOT QUALITY CONTROLLED BY THE NATIONAL WEATHER SERVICE.
    USE DATA WITH CAUTION...ESPECIALLY DEWPOINT AND RELATIVE
    HUMIDITY OBSERVATIONS.

INZ001>003-010>013-019-020-020100-
NORTHWEST INDIANA

CITY           SKY/WX    TMP DP  RH WIND       PRES   REMARKS
GARY /AIRPORT/ LGT SNOW  25  19  80 NE23G39   29.75R VSB 1   WCI  10
KNOX *+        CLOUDY    23  18  80 NE14G22   29.65S WCI  11
LA PORTE +     LGT SNOW  22  19  90 NE10G17   29.69S WCI  11
6HR MIN TEMP:  22; 6HR MAX TEMP:  32; 6HR PCP:  0.01;

MICHIGAN CITY+ LGT SNOW  21  18  86 NE9G16    29.72S WCI  11
MONTICELLO +   LGT SNOW  29  29  97 NE12      29.59S WCI  20
6HR MIN TEMP:  29; 6HR MAX TEMP:  32; 6HR PCP:  0.12;

RENSSELAER +   LGT SNOW  28  28 100 N10       29.63S WCI  19
VALPARAISO     LGT SNOW  20  17  88 NE15G23   29.67F FOG     WCI   6
6HR MIN TEMP:  20; 6HR MAX TEMP:  31; 6HR PCP:  0.06;


$$

LMZ046-743>745-020100-
SOUTHERN LAKE MICHIGAN

STATION/POSITION TIME  TEMP WIND        PRES
                       AIR  DIR/SP/G
                 (UTC) (F)  (DEG/KT/KT) (MB)
MICHIGAN CITY    0000   20   30/ 29/ 31   N/A

$$

INZ004-005-014>016-021>024-020100-
NORTH CENTRAL INDIANA

CITY           SKY/WX    TMP DP  RH WIND       PRES   REMARKS
GOSHEN         LGT SNOW  21  18  88 NE16G23   29.68R VSB 3/4 WCI   7
6HR MIN TEMP:  21; 6HR MAX TEMP:  27; 6HR PCP:  0.06;

LOGANSPORT +   LGT SNOW  30  30 100 NE7       29.59S WCI  23
PERU/GRISSOM   LGT SNOW  31  30  95 NE16      29.57F FOG     WCI  20
6HR MIN TEMP:  31; 6HR MAX TEMP:  33; 6HR PCP:  0.32;

ROCHESTER +    LGT SNOW  28  28 100 NE13      29.62S WCI  18
SOUTH BEND     LGT SNOW  20  15  81 NE18G29   29.69S WCI   5
6HR MIN TEMP:  20; 6HR MAX TEMP:  29; 6HR PCP:  0.54;

WARSAW +       LGT SNOW  25  23  93 NE13G18   29.64F WCI  13

$$

INZ006>009-017-018-025>027-020100-
NORTHEAST INDIANA

CITY           SKY/WX    TMP DP  RH WIND       PRES   REMARKS
ANGOLA *+      CLOUDY    19  18  93 NE14      29.66S WCI   6
AUBURN +       LGT SNOW  25  21  86 NE18      29.64F WCI  11
FORT WAYNE     LGT SNOW  26  23  88 NE17      29.61F VSB 3/4 WCI  13
6HR MIN TEMP:  26; 6HR MAX TEMP:  32; 6HR PCP:  0.36;

HUNTINGTON +   LGT SNOW  27  23  86 NE10      29.59F WCI  17
6HR MIN TEMP:  27; 6HR MAX TEMP:  32; 6HR PCP:  0.20;


$$

INZ028-029-035-036-043>045-051>053-020100-
WEST CENTRAL INDIANA

CITY           SKY/WX    TMP DP  RH WIND       PRES   REMARKS
CRAWFORDSVL +  CLOUDY    32  30  93 W5        29.57S FOG     WCI  27
6HR MIN TEMP:  32; 6HR MAX TEMP:  32; 6HR PCP:  0.02;

GREENCASTLE +  CLOUDY    36  32  87 W3        29.57F
LAFAYETTE      LGT SNOW  32  31  96 N5        29.58F FOG     WCI  27
6HR MIN TEMP:  32; 6HR MAX TEMP:  33; 6HR PCP:  0.08;

TERRE HAUTE    CLOUDY    37  35  92 W10       29.60R
6HR MIN TEMP:  34; 6HR MAX TEMP:  38; 6HR PCP:  0.11;


$$

INZ030>032-037>040-046>048-054>057-064-065-020100-
CENTRAL INDIANA

CITY           SKY/WX    TMP DP  RH WIND       PRES   REMARKS
CP ATTERBURY + DRIZZLE   43  41  93 W5        29.57S
COLUMBUS       CLOUDY    41  39  93 SW6       29.57S
FRANKFORT +    DRIZZLE   34  34 100 CALM      29.58S
6HR MIN TEMP:  33; 6HR MAX TEMP:  34; 6HR PCP:  0.05;

GREENWOOD *+   CLOUDY    37  34  87 W3        29.57S VSB 1/2
INDIANAPOLIS   FOG       32  32 100 W5        29.55F VSB 1   WCI  27
6HR MIN TEMP:  31; 6HR MAX TEMP:  33; 6HR PCP:  0.12;

-EAGLE CREEK   CLOUDY    35  35 100 VRB3      29.55F FOG
6HR MIN TEMP:  33; 6HR MAX TEMP:  35; 6HR PCP:  0.10;

KOKOMO *+      CLOUDY    34  30  86 NE12      29.57F WCI  25
6HR MIN TEMP:  32; 6HR MAX TEMP:  34; 6HR PCP:  0.31;

MARION +       MIX PCPN  32  32 100 NE8       29.57F WCI  25
MT COMFORT *+  CLOUDY    34 N/A N/A SW3       29.56S VSB 3/4
SHELBYVILLE    LGT RAIN  42  39  89 SW9       29.55S FOG
6HR MIN TEMP:  36; 6HR MAX TEMP:  42; 6HR PCP:  0.12;

ZIONSVILLE +   FOG       34  32  92 CALM      29.56S VSB 3/4
6HR MIN TEMP:  33; 6HR MAX TEMP:  35; 6HR PCP:  0.07;


$$

INZ033-034-041-042-049-050-058-059-020100-
EAST CENTRAL INDIANA

CITY           SKY/WX    TMP DP  RH WIND       PRES   REMARKS
MUNCIE         LGT RAIN  34  32  92 N8        29.55F FOG     WCI  27
6HR MIN TEMP:  33; 6HR MAX TEMP:  34; 6HR PCP:  0.28;


$$

INZ060-061-067>069-081>083-085>088-020100-
SOUTHWEST INDIANA

CITY           SKY/WX    TMP DP  RH WIND       PRES   REMARKS
EVANSVILLE     CLOUDY    47  42  83 W12G18    29.64R
6HR MIN TEMP:  44; 6HR MAX TEMP:  48; 6HR PCP:  0.16;

HUNTINGBURG *+ CLOUDY    45  43  93 W16       29.62R
6HR MIN TEMP:  41; 6HR MAX TEMP:  46; 6HR PCP:  0.01;

WASHINGTON +   CLOUDY    42  38  87 W13       29.61R
6HR MIN TEMP:  40; 6HR MAX TEMP:  45; 6HR PCP:  0.04;


$$

INZ062-063-066-070>080-084-089>092-020100-
SOUTH CENTRAL AND SOUTHEAST INDIANA

CITY           SKY/WX    TMP DP  RH WIND       PRES   REMARKS
BLOOMINGTON    CLOUDY    42  40  92 W9G20     29.57S FOG
6HR MIN TEMP:  37; 6HR MAX TEMP:  44; 6HR PCP:  0.10;

SEYMOUR +      DRIZZLE   45  45 100 S6        29.57S

$$



USA.gov is the U.S. government's official web portal to all federal, state and local government web resources and services.